Vorticity
nan nan nan nan nan nan nan nan nan nan nan nan nan nan nan nan nan nan nan nan nan nan
nan 7 8 9 7 7 9 10 10 8 8 9 8 7 6 7 8 8 8 8 8 nan
nan 8 8 9 9 8 9 9 10 9 8 9 8 8 7 6 8 7 7 8 9 nan
nan 9 8 8 9 9 9 9 8 8 8 8 9 9 8 6 8 8 7 7 8 nan
nan 10 8 8 9 9 8 8 8 8 8 8 8 9 9 8 9 8 8 8 8 nan
nan 9 8 10 9 9 9 9 9 8 8 8 8 8 8 8 9 9 9 9 8 nan
nan 9 9 9 10 9 8 8 9 9 9 8 7 8 8 8 9 9 9 9 9 nan
nan 9 10 10 10 10 8 9 9 8 9 8 8 10 11 8 8 8 8 9 9 nan
nan 10 9 9 9 9 9 9 9 9 9 7 8 12 11 8 7 8 8 8 9 nan
nan 10 10 9 9 9 9 9 10 10 9 9 9 13 12 8 4 8 8 8 8 nan
nan 9 10 10 9 9 10 10 9 10 9 8 9 13 11 10 6 7 9 9 8 nan
nan 10 10 10 9 9 10 9 10 10 10 8 10 13 10 7 8 9 10 10 10 nan
nan 10 9 10 10 9 10 9 10 10 10 9 11 10 13 6 6 11 11 12 14 nan
nan nan nan nan nan nan nan nan nan nan nan nan nan nan nan nan nan nan nan nan nan nan
CAPE
1575 779 757 1244 722 691 534 768 1422 1933 1927 2112 2230 2225 2196 1979 1986 1975 1947 1884 1792 1178
1408 1365 990 1538 1246 747 1192 600 1326 1760 1886 1980 2083 2212 2292 2054 2301 2105 2270 2161 2213 1917
1221 1322 1374 1376 1444 1406 903 991 990 1783 1893 2061 2097 2225 2394 2086 2313 2550 2347 2063 2182 2167
981 1012 1143 994 1094 1594 1159 1319 1550 1862 1947 2063 2133 2249 2476 2396 2245 2552 2633 2466 2300 2389
964 1021 875 1264 997 1387 1669 1389 1620 1702 1908 2031 2060 2141 2333 2266 1998 2454 2522 2597 2608 2458
986 909 1311 1427 1385 1450 1605 1718 1325 1560 1775 1998 2002 2122 2237 2312 2378 2411 2398 2485 2695 2727
1267 1343 1304 1647 1783 1341 1857 1816 1769 1764 1902 1849 1979 2062 2155 2268 2423 2495 2472 2561 2612 2709
1479 1609 1765 1940 2011 1762 1741 1976 2018 1905 1743 1827 1801 1703 2128 2343 2521 2626 2672 2677 2737 2771
1737 1855 1941 2108 2182 2040 1971 1953 2180 1835 2059 1924 1656 1051 1025 1738 2301 2742 2869 2824 2806 2815
2022 2040 2139 2246 2401 2534 2298 2061 2213 1922 1983 2199 2480 1263 436 368 1927 2421 2699 2897 2954 2895
2198 2173 2260 2320 2382 2575 2514 2608 2519 2198 2295 2304 2526 1517 402 2 1411 2602 3004 3092 2898 3199
2324 2357 2427 2402 2402 2197 2084 2151 2419 2321 2486 2460 2532 1196 556 17 1615 2093 2889 2997 2970 3002
2531 2611 2690 2809 2824 2820 2466 2136 2003 2115 2396 2239 2773 1948 50 0 1601 2071 2022 2899 3132 2071
2819 2899 3000 3114 3202 2839 2631 2832 2669 2494 2596 2474 2288 2423 683 0 1639 1986 2214 2294 2388 2550